Погода в Сеферихисаре

Турция     38°11′46″N   26°50′07″E
темп.,
°C
ветер,
м/с
пор.,
м/с
влажн.,
%
обл.,
%
осадки,
мм/ч
давл.,
гПа
погр.,
м
24 мая, вт
вт2400:00+20ссз115438 0.0 101013
03:00+18ссз11604 0.0 101011
06:00+18ссв11605 0.0 101011
09:00+24св11405 0.0 1011406
12:00+29юз12300 0.0 10111412
15:00+29зсз33303 0.0 10111774
18:00+27сз34335 0.0 1011732
21:00+21с22490 0.0 101216
25 мая, ср
ср2500:00+20с22530 0.0 101424
03:00+19с22580 0.0 101426
06:00+18ссв22641 0.0 101417
09:00+24с2346100 0.0 1015315
12:00+28с333626 0.0 1016846
15:00+30ссз43345 0.0 10151109
18:00+28ссз44390 0.0 1015487
21:00+22с22610 0.0 101631
26 мая, чт
чт2600:00+21с23640 0.0 101734
03:00+20с33670 0.0 101747
06:00+18с34770 0.0 101756
09:00+25с34510 0.0 1017323
12:00+29с45390 0.0 1018759
15:00+31с56320 0.0 1017805
18:00+30ссз47310 0.0 1016669
21:00+22с33560 0.0 101647
27 мая, пт
пт2700:00+21с36610 0.0 101794
03:00+20с47673 0.0 1016111
06:00+20с46687 0.0 1016122
09:00+25с57490 0.0 1016320
12:00+30с68330 0.0 1015836
15:00+32с68270 0.0 10141416
18:00+31ссз46280 0.0 10121052
21:00+23ссз22570 0.0 101317
28 мая, сб
сб2800:00+22с33590 0.0 101232
03:00+21ссз336115 0.0 101135
06:00+19с33674 0.0 101149
09:00+25с35420 0.0 1011331
12:00+30с44262 0.0 1010847
15:00+32ссз43230 0.0 10091415
18:00+30сз34280 0.0 1008519
21:00+23сз11460 0.0 100911